[[{"header":{"parameterUnit":"m.s-1","parameterCategory":1,"la1":30.2991,"la2":30.254,"lo1":-89.0895,"lo2":-89.0444,"dy":0.0017,"dx":0.0017,"nx":28,"ny":28,"refTime":"2023-10-20T03:00:00:Z","depth":0,"parameterNumber":2,"parameterNumberName":"U-component_of_WINDS"},"data":[0,0,0,0,0,0,0,0,0,0,0,0,0,0,0,0,0,0,0,0,0,0,0,0,0,0,0,0,0,0,0,0,0,0,0,0,0,0,0,0,0,0,0,0,0,0,0,0,0,0,0,0,0,0,0,0,0,0,-3.8814,-3.8814,0,-3.8795,-3.8795,-3.8795,-3.8692,-3.869,-3.8687,-3.8685,-3.8667,-3.8669,-3.8671,0,0,0,0,0,0,0,0,0,0,0,0,0,-3.8763,-3.8764,-3.8814,-3.8814,-3.8813,-3.8795,-3.8795,-3.8795,-3.8693,-3.869,-3.8687,-3.8684,-3.8667,-3.8669,-3.8671,0,0,0,0,0,0,0,0,0,0,0,0,0,-3.8769,-3.8765,-3.8814,-3.876,-3.8755,-3.8795,-3.8795,-3.8795,-3.8693,-3.869,-3.8686,-3.8683,-3.8666,-3.8669,-3.8671,-3.8762,0,0,-3.868,-3.8681,0,0,0,0,0,0,0,0,-3.8769,-3.8771,-3.8768,-3.8764,-3.8758,-3.8742,-3.877,-3.8784,-3.8694,-3.8717,-3.8685,-3.8681,-3.8695,-3.8695,-3.87,-3.8761,-3.876,-3.868,-3.8682,-3.8683,-3.8683,0,0,0,0,0,0,0,-3.8768,-3.8771,-3.8806,-3.8768,-3.8762,-3.8738,-3.8734,-3.8773,-3.8727,-3.8715,-3.8707,-3.8706,-3.8692,-3.8698,-3.8699,-3.876,-3.868,-3.8682,-3.8684,-3.8685,-3.8898,-3.8901,0,0,0,0,0,0,-3.8775,-3.8771,-3.8807,-3.8806,-3.8754,-3.8742,-3.8738,-3.8751,-3.8726,-3.8719,-3.8709,-3.8702,-3.8695,-3.8696,-3.8698,-3.8805,-3.8683,-3.8685,-3.8687,-3.8894,-3.8899,-3.8903,0,0,0,0,0,0,-3.8774,-3.8779,-3.8808,-3.8787,-3.8788,-3.8746,-3.8762,-3.8753,-3.8758,-3.8722,-3.8714,-3.8724,-3.8692,-3.8694,-3.8747,-3.8802,-3.8686,-3.8689,-3.8889,-3.8895,-3.8901,-3.9018,0,0,0,0,0,0,-3.8773,-3.878,-3.8813,-3.8788,-3.879,-3.8858,-3.8765,-3.8755,-3.8763,-3.8753,-3.8734,-3.8727,-3.8689,-3.8744,-3.875,-3.8804,-3.8691,-3.8884,-3.8892,-3.8899,-3.9009,-3.9027,-3.9043,0,0,0,0,0,-3.8772,-3.8846,-3.8815,-3.882,-3.8831,-3.8861,-3.8862,-3.8817,-3.8768,-3.8802,-3.8779,-3.8727,-3.8795,-3.875,-3.8756,-3.8812,-3.888,-3.8889,-3.8898,-3.9001,-3.9024,-3.9042,0,0,0,0,0,0,-3.8879,-3.8842,-3.8807,-3.8876,-3.8872,-3.8843,-3.8885,-3.8841,-3.8852,-3.8842,-3.8785,-3.8782,-3.8844,-3.8833,-3.8784,-3.89,-3.8829,-3.884,-3.8905,-3.8926,-3.8943,-3.8945,-3.8693,0,0,0,0,0,-3.891,-3.8937,-3.8904,-3.8968,-3.8968,-3.8927,-3.8938,-3.8904,-3.8898,-3.8896,-3.8877,-3.8874,-3.8894,-3.8909,-3.8926,-3.9006,-3.9002,-3.9048,-3.9065,-3.9079,-3.9089,-3.9133,-3.9154,-3.8933,-3.8932,-3.8932,0,0,-3.8976,-3.8959,-3.8979,-3.8989,-3.8982,-3.9012,-3.8926,-3.8961,-3.8984,-3.8901,-3.8951,-3.8937,-3.893,-3.8998,-3.9027,-3.8991,-3.9149,-3.909,-3.9102,-3.9104,-3.9145,-3.9166,-3.9185,-3.8939,-3.8938,-3.8937,0,0,-3.9111,-3.91,-3.9153,-3.9149,-3.914,-3.9112,-3.9126,-3.9104,-3.9091,-3.914,-3.908,-3.9106,-3.9142,-3.914,-3.9144,-3.9281,-3.9235,-3.9288,-3.9377,-3.9421,-3.9438,-3.9453,-3.9505,-3.9524,-3.9298,-3.9298,-3.9299,0,-3.9194,-3.9237,-3.9186,-3.9226,-3.9233,-3.916,-3.9215,-3.9212,-3.921,-3.9217,-3.9175,-3.9221,-3.9211,-3.9279,-3.9312,-3.9317,-3.9332,-3.9291,-3.944,-3.9454,-3.9468,-3.9516,-3.9535,-3.9305,-3.9304,-3.9304,-3.9303,0,-3.934,-3.9371,-3.9415,-3.9415,-3.9426,-3.9473,-3.9431,-3.9449,-3.9414,-3.9392,-3.9444,-3.9429,-3.9443,-3.9456,-3.9422,-3.952,-3.9498,-3.9449,-3.9377,-3.9497,-3.9541,-3.9559,-3.9315,-3.9312,-3.931,-3.9309,0,0,-3.9542,-3.9515,-3.9532,-3.9532,-3.9518,-3.9541,-3.9585,-3.9599,-3.9617,-3.9617,-3.9654,-3.9687,-3.9643,-3.9647,-3.9612,-3.9651,-3.9763,-3.9597,-3.9596,-3.9631,-3.9874,-3.9912,-3.9934,-3.9732,-3.9735,-3.9738,-3.9875,0,-3.9674,-3.9748,-3.9705,-3.9786,-3.9815,-3.9747,-3.9786,-3.9782,-3.9762,-3.9785,-3.9763,-3.9788,-3.9726,-3.9729,-3.9763,-3.9742,-3.9812,-3.9731,-3.9768,-3.977,-3.9774,-3.9957,-3.9997,-4.0128,-3.9892,-3.9895,-3.9897,0,-3.9837,-3.9846,-3.993,-3.9912,-3.9923,-3.9959,-3.9969,-3.9991,-3.9986,-3.9969,-3.9975,-3.9931,-3.9975,-3.9903,-3.9963,-3.991,-3.9922,-3.9914,-3.9918,-3.9921,-3.9842,-3.9968,-4.0168,-4.0189,-3.9923,-3.9921,-3.9919,0,-3.9979,-4.0012,-4.0067,-4.0069,-4.0049,-4.0076,-4.0069,-4.006,-4.0072,-4.0081,-4.0088,-4.0102,-4.0111,-4.0123,-4.0085,-4.0035,-4.0152,-4.0076,-4.0141,-4.0142,-4.017,-4.0169,-4.0377,-4.0174,-4.0174,-4.0174,-4.0173,0,-4.0132,-4.0187,-4.0131,-4.0166,-4.0226,-4.0176,-4.0237,-4.0223,-4.0216,-4.0247,-4.0188,-4.0219,-4.0166,-4.0192,-4.0162,-4.0218,-4.0221,-4.021,-4.0202,-4.0217,-4.0219,-4.0226,-4.0217,-4.0179,-4.0178,-4.0177,-4.0176,0,-4.0302,-4.0266,-4.0323,-4.0299,-4.0295,-4.0341,-4.0321,-4.0353,-4.0329,-4.037,-4.0376,-4.034,-4.0367,-4.033,-4.0354,-4.0334,-4.0412,-4.0389,-4.0414,-4.0408,-4.0476,-4.0472,-4.0698,-4.0726,-4.0503,-4.0506,-4.0507,0,-4.0402,-4.0443,-4.0425,-4.0442,-4.0438,-4.0466,-4.0478,-4.0431,-4.0446,-4.0444,-4.0477,-4.0499,-4.0515,-4.0562,-4.0539,-4.0557,-4.0536,-4.0614,-4.0538,-4.0552,-4.054,-4.0539,-4.0544,-4.063,-4.0633,-4.0635,-4.0637,0,-4.0586,-4.0567,-4.0586,-4.0601,-4.0617,-4.0626,-4.0631,-4.0648,-4.0599,-4.0619,-4.0647,-4.0659,-4.0684,-4.0708,-4.072,-4.0713,-4.0669,-4.066,-4.0677,-4.0694,-4.0708,-4.0704,-4.0459,-4.0656,-4.0654,-4.0653,-4.0651,-4.0651,-4.0726,-4.076,-4.0753,-4.0778,-4.0776,-4.0783,-4.0812,-4.0793,-4.0815,-4.0831,-4.0802,-4.0838,-4.0834,-4.0845,-4.0844,-4.0872,-4.0839,-4.0862,-4.0868,-4.0875,-4.0887,-4.0702,-4.0874,-4.0873,-4.0873,-4.0872,-4.0872,0,-4.0909,-4.0901,-4.0924,-4.0933,-4.0953,-4.0908,-4.0911,-4.0931,-4.0963,-4.0963,-4.098,-4.1013,-4.1036,-4.1015,-4.1035,-4.1061,-4.1041,-4.1068,-4.1067,-4.1067,-4.0915,-4.09,-4.1085,-4.1085,-4.1085,-4.1084,-4.1084,-4.1084,-4.1006,-4.1063,-4.1043,-4.1099,-4.1091,-4.1126,-4.1132,-4.1138,-4.1138,-4.1178,-4.1197,-4.1183,-4.1175,-4.1193,-4.1213,-4.1207,-4.1218,-4.1253,-4.1239,-4.1098,-4.1077,-4.1057,-4.1043,-4.1255,-4.1255,-4.1389,-4.139,-4.1391]},{"header":{"parameterUnit":"m.s-1","parameterCategory":1,"la1":30.2991,"la2":30.254,"lo1":-89.0895,"lo2":-89.0444,"dy":0.0017,"dx":0.0017,"nx":28,"ny":28,"refTime":"2023-10-20T03:00:00:Z","depth":0,"parameterNumber":3,"parameterNumberName":"V-component_of_WINDS"},"data":[0,0,0,0,0,0,0,0,0,0,0,0,0,0,0,0,0,0,0,0,0,0,0,0,0,0,0,0,0,0,0,0,0,0,0,0,0,0,0,0,0,0,0,0,0,0,0,0,0,0,0,0,0,0,0,0,0,0,-0.3176,-0.3177,0,-0.322,-0.322,-0.3221,-0.3207,-0.3206,-0.3205,-0.3204,-0.3251,-0.3253,-0.3255,0,0,0,0,0,0,0,0,0,0,0,0,0,-0.3082,-0.3084,-0.3176,-0.3177,-0.3177,-0.322,-0.322,-0.3221,-0.3207,-0.3206,-0.3205,-0.3204,-0.3251,-0.3253,-0.3256,0,0,0,0,0,0,0,0,0,0,0,0,0,-0.3124,-0.3085,-0.3176,-0.3175,-0.3176,-0.3219,-0.322,-0.3221,-0.3207,-0.3206,-0.3205,-0.3203,-0.325,-0.3253,-0.3256,-0.3304,0,0,-0.3266,-0.3267,0,0,0,0,0,0,0,0,-0.3122,-0.3128,-0.3175,-0.3176,-0.3176,-0.3206,-0.3204,-0.3249,-0.3208,-0.3195,-0.3204,-0.3203,-0.3238,-0.3242,-0.3253,-0.3306,-0.3308,-0.3266,-0.3268,-0.3269,-0.327,0,0,0,0,0,0,0,-0.3119,-0.3126,-0.3193,-0.3176,-0.3176,-0.3173,-0.3178,-0.3213,-0.3224,-0.3196,-0.3196,-0.3201,-0.3238,-0.325,-0.3254,-0.3309,-0.3266,-0.3269,-0.3271,-0.3272,-0.3402,-0.3403,0,0,0,0,0,0,-0.3116,-0.3124,-0.3192,-0.3195,-0.3145,-0.3176,-0.3181,-0.3198,-0.3224,-0.3226,-0.3202,-0.32,-0.3245,-0.325,-0.3256,-0.3313,-0.3269,-0.3272,-0.3274,-0.34,-0.3402,-0.3404,0,0,0,0,0,0,-0.3114,-0.3122,-0.319,-0.3159,-0.3167,-0.3179,-0.3198,-0.32,-0.3212,-0.3228,-0.323,-0.3212,-0.3244,-0.3251,-0.3291,-0.3314,-0.3274,-0.3277,-0.3399,-0.3401,-0.3403,-0.3428,0,0,0,0,0,0,-0.3111,-0.3121,-0.3139,-0.3159,-0.3169,-0.3225,-0.32,-0.3202,-0.3217,-0.3215,-0.3238,-0.324,-0.3244,-0.3287,-0.3295,-0.3318,-0.3279,-0.3397,-0.34,-0.3402,-0.3425,-0.3431,-0.3436,0,0,0,0,0,-0.3108,-0.3145,-0.314,-0.3149,-0.3192,-0.3226,-0.3232,-0.3234,-0.3219,-0.3238,-0.3247,-0.324,-0.331,-0.3291,-0.33,-0.3325,-0.3395,-0.3399,-0.3402,-0.3423,-0.343,-0.3436,0,0,0,0,0,0,-0.3129,-0.3148,-0.3143,-0.3188,-0.3205,-0.3224,-0.3248,-0.3242,-0.3265,-0.3262,-0.3265,-0.327,-0.3311,-0.3322,-0.33,-0.3372,-0.3351,-0.3356,-0.3364,-0.337,-0.3375,-0.3373,-0.3282,0,0,0,0,0,-0.3138,-0.3164,-0.318,-0.3218,-0.3227,-0.3236,-0.3251,-0.3251,-0.327,-0.3278,-0.329,-0.331,-0.3336,-0.3354,-0.3379,-0.3426,-0.3431,-0.3448,-0.3453,-0.3457,-0.3462,-0.3488,-0.3496,-0.3415,-0.3415,-0.3415,0,0,-0.3159,-0.3173,-0.3189,-0.3223,-0.3237,-0.3264,-0.3242,-0.3272,-0.3293,-0.3282,-0.3321,-0.3331,-0.3353,-0.3397,-0.3417,-0.3407,-0.3485,-0.3462,-0.3465,-0.3468,-0.3492,-0.35,-0.3507,-0.3418,-0.3417,-0.3417,0,0,-0.3211,-0.3224,-0.3257,-0.3271,-0.3291,-0.3296,-0.3304,-0.3323,-0.3329,-0.3368,-0.3361,-0.3385,-0.343,-0.3446,-0.346,-0.3516,-0.351,-0.3524,-0.3552,-0.3577,-0.3583,-0.3589,-0.3609,-0.3617,-0.3529,-0.3529,-0.3529,0,-0.3235,-0.3275,-0.3275,-0.3305,-0.332,-0.331,-0.3344,-0.3358,-0.3386,-0.3397,-0.3385,-0.3441,-0.3455,-0.3502,-0.3516,-0.3527,-0.3536,-0.3522,-0.3582,-0.3588,-0.3593,-0.3613,-0.362,-0.353,-0.353,-0.353,-0.353,0,-0.3303,-0.3331,-0.3355,-0.3381,-0.3399,-0.3431,-0.3436,-0.3453,-0.3451,-0.3458,-0.3497,-0.3513,-0.3541,-0.3552,-0.3551,-0.3599,-0.3593,-0.3581,-0.3561,-0.3603,-0.3621,-0.3628,-0.3533,-0.3532,-0.3531,-0.3531,0,0,-0.3371,-0.3395,-0.3404,-0.3416,-0.3437,-0.3459,-0.349,-0.3516,-0.3532,-0.3551,-0.3578,-0.3616,-0.3605,-0.3621,-0.3621,-0.3643,-0.3686,-0.3629,-0.363,-0.364,-0.3741,-0.375,-0.3758,-0.3682,-0.3683,-0.3684,-0.3739,0,-0.3425,-0.3479,-0.3479,-0.353,-0.3555,-0.3546,-0.3573,-0.3589,-0.3596,-0.3619,-0.3626,-0.3653,-0.3637,-0.3646,-0.3667,-0.3677,-0.3707,-0.3673,-0.3708,-0.3709,-0.3703,-0.3768,-0.3778,-0.3829,-0.3746,-0.3748,-0.3749,0,-0.3496,-0.3516,-0.3568,-0.3585,-0.3596,-0.362,-0.3644,-0.3666,-0.3684,-0.3687,-0.3704,-0.3701,-0.3733,-0.371,-0.3754,-0.3731,-0.3745,-0.3751,-0.3753,-0.3758,-0.3732,-0.3775,-0.3845,-0.3853,-0.376,-0.3759,-0.3758,0,-0.3541,-0.3581,-0.3618,-0.3628,-0.3648,-0.3665,-0.3675,-0.3691,-0.3707,-0.3727,-0.3738,-0.3762,-0.3776,-0.3795,-0.3799,-0.3781,-0.3843,-0.3821,-0.3848,-0.3848,-0.3862,-0.3861,-0.3937,-0.387,-0.3869,-0.3869,-0.3869,0,-0.3602,-0.3634,-0.3638,-0.3661,-0.3697,-0.3696,-0.3732,-0.374,-0.3755,-0.3779,-0.3772,-0.3795,-0.3798,-0.3822,-0.3825,-0.3861,-0.3867,-0.3871,-0.3872,-0.3872,-0.3872,-0.3883,-0.388,-0.3871,-0.3871,-0.3871,-0.387,0,-0.3659,-0.3662,-0.3701,-0.3717,-0.3721,-0.3747,-0.3761,-0.3782,-0.3787,-0.3818,-0.3825,-0.3834,-0.3861,-0.3866,-0.3899,-0.3901,-0.3945,-0.3941,-0.3938,-0.3938,-0.3965,-0.3963,-0.4051,-0.4063,-0.3987,-0.3988,-0.3988,0,-0.3698,-0.3722,-0.374,-0.3755,-0.3765,-0.379,-0.3805,-0.3805,-0.3822,-0.3843,-0.3863,-0.3889,-0.3911,-0.3955,-0.3965,-0.399,-0.3987,-0.4016,-0.3991,-0.3991,-0.3988,-0.3987,-0.399,-0.4021,-0.4022,-0.4023,-0.4023,0,-0.3767,-0.3767,-0.3789,-0.3812,-0.383,-0.3848,-0.3865,-0.3878,-0.388,-0.3899,-0.3927,-0.3943,-0.3976,-0.4003,-0.4027,-0.4037,-0.4031,-0.4031,-0.4039,-0.404,-0.4038,-0.404,-0.3953,-0.4029,-0.4029,-0.4028,-0.4028,-0.4028,-0.3817,-0.3838,-0.3853,-0.3878,-0.389,-0.3906,-0.3927,-0.3934,-0.3957,-0.3983,-0.3981,-0.4012,-0.4028,-0.4061,-0.4072,-0.4096,-0.4087,-0.4098,-0.4101,-0.4104,-0.4107,-0.4033,-0.4101,-0.41,-0.41,-0.41,-0.41,0,-0.3886,-0.3895,-0.3917,-0.3941,-0.396,-0.3951,-0.3969,-0.3986,-0.4012,-0.4028,-0.4049,-0.408,-0.4106,-0.4116,-0.4141,-0.4159,-0.4156,-0.4165,-0.4165,-0.4167,-0.4113,-0.4104,-0.4167,-0.4167,-0.4167,-0.4167,-0.4167,-0.4167,-0.3925,-0.396,-0.3962,-0.4003,-0.4012,-0.4041,-0.4052,-0.4067,-0.4079,-0.4114,-0.4135,-0.4141,-0.4155,-0.4181,-0.4204,-0.4206,-0.4216,-0.4227,-0.4228,-0.4178,-0.4171,-0.4165,-0.4156,-0.4228,-0.4229,-0.428,-0.428,-0.4281]}]]